TimeCDT,TemperatureF,Dew PointF,Humidity,Sea Level PressureIn,VisibilityMPH,Wind Direction,Wind SpeedMPH,Gust SpeedMPH,PrecipitationIn,Events,Conditions,WindDirDegrees,DateUTC
12:15 AM,41.0,41.0,100,29.99,3.0,WNW,5.8,-,N/A,,Clear,300,2013-05-22 05:15:00
12:35 AM,41.0,41.0,100,30.00,10.0,NNW,4.6,-,N/A,,Partly Cloudy,330,2013-05-22 05:35:00
12:55 AM,41.0,41.0,100,30.00,2.5,NW,4.6,-,N/A,,Partly Cloudy,320,2013-05-22 05:55:00
1:15 AM,41.0,41.0,100,29.99,1.8,NW,4.6,-,N/A,,Scattered Clouds,320,2013-05-22 06:15:00
1:35 AM,41.0,41.0,100,29.99,2.5,NW,4.6,-,N/A,,Partly Cloudy,320,2013-05-22 06:35:00
1:55 AM,41.0,41.0,100,29.98,3.0,WNW,4.6,-,N/A,,Partly Cloudy,300,2013-05-22 06:55:00
4:35 AM,41.0,41.0,100,29.98,2.5,NNW,5.8,-,N/A,,Partly Cloudy,330,2013-05-22 09:35:00
4:55 AM,41.0,41.0,100,29.98,5.0,NW,5.8,-,N/A,,Scattered Clouds,310,2013-05-22 09:55:00
5:15 AM,41.0,41.0,100,29.98,2.0,NW,5.8,-,N/A,,Scattered Clouds,310,2013-05-22 10:15:00
5:35 AM,41.0,41.0,100,29.98,2.0,WNW,6.9,-,N/A,,Scattered Clouds,300,2013-05-22 10:35:00
5:55 AM,41.0,41.0,100,29.99,2.0,NW,5.8,-,N/A,,Mostly Cloudy,310,2013-05-22 10:55:00
6:15 AM,41.0,41.0,100,29.99,0.8,NW,4.6,-,N/A,,Mostly Cloudy,310,2013-05-22 11:15:00
6:35 AM,41.0,41.0,100,29.99,0.5,NW,5.8,-,N/A,Fog,Fog,310,2013-05-22 11:35:00
6:55 AM,41.0,41.0,100,30.00,0.2,NW,5.8,-,N/A,Fog,Fog,310,2013-05-22 11:55:00
7:15 AM,41.0,41.0,100,30.00,0.5,WNW,4.6,-,N/A,Fog,Fog,290,2013-05-22 12:15:00
7:35 AM,41.0,41.0,100,30.01,9.0,WNW,4.6,-,N/A,,Overcast,300,2013-05-22 12:35:00
7:55 AM,41.0,41.0,100,30.01,9.0,WNW,5.8,-,N/A,,Overcast,300,2013-05-22 12:55:00
8:15 AM,41.0,41.0,100,30.02,3.0,WNW,5.8,-,N/A,,Mostly Cloudy,290,2013-05-22 13:15:00
8:35 AM,42.8,42.8,100,30.02,2.5,WNW,4.6,-,N/A,,Clear,290,2013-05-22 13:35:00
8:55 AM,42.8,42.8,100,30.02,1.2,West,4.6,-,N/A,,Clear,270,2013-05-22 13:55:00
9:15 AM,42.8,42.8,100,30.03,2.0,WNW,4.6,-,N/A,,Clear,300,2013-05-22 14:15:00
9:35 AM,44.6,44.6,100,30.03,5.0,NW,3.5,-,N/A,,Partly Cloudy,310,2013-05-22 14:35:00
9:55 AM,44.6,44.6,100,30.03,0.8,NE,5.8,-,N/A,Rain,Light Rain,40,2013-05-22 14:55:00
10:15 AM,44.6,44.6,100,30.03,0.8,NE,8.1,-,N/A,,Mist,40,2013-05-22 15:15:00
10:35 AM,44.6,44.6,100,30.04,1.8,NE,8.1,-,N/A,,Scattered Clouds,50,2013-05-22 15:35:00
10:55 AM,44.6,44.6,100,30.04,2.5,NE,5.8,-,N/A,,Partly Cloudy,40,2013-05-22 15:55:00
11:15 AM,44.6,44.6,100,30.04,6.0,Calm,Calm,-,N/A,,Partly Cloudy,0,2013-05-22 16:15:00
11:35 AM,44.6,44.6,100,30.05,10.0,Calm,Calm,-,N/A,,Clear,0,2013-05-22 16:35:00
11:55 AM,46.4,44.6,93,30.05,10.0,NE,5.8,-,N/A,,Scattered Clouds,50,2013-05-22 16:55:00
12:15 PM,44.6,44.6,100,30.06,2.5,NE,9.2,-,N/A,,Partly Cloudy,40,2013-05-22 17:15:00
12:35 PM,44.6,44.6,100,30.06,2.5,NE,10.4,-,N/A,,Clear,40,2013-05-22 17:35:00
12:55 PM,44.6,44.6,100,30.06,2.5,NE,9.2,-,N/A,,Clear,40,2013-05-22 17:55:00
1:15 PM,46.4,44.6,93,30.07,8.0,ENE,10.4,-,N/A,,Scattered Clouds,60,2013-05-22 18:15:00
1:35 PM,46.4,44.6,93,30.07,5.0,ENE,8.1,-,N/A,,Scattered Clouds,60,2013-05-22 18:35:00
1:55 PM,46.4,46.4,100,30.07,5.0,ESE,6.9,-,N/A,,Mostly Cloudy,110,2013-05-22 18:55:00
2:15 PM,46.4,44.6,93,30.07,10.0,East,11.5,-,N/A,,Mostly Cloudy,80,2013-05-22 19:15:00
2:35 PM,46.4,44.6,93,30.07,10.0,East,8.1,-,N/A,,Overcast,90,2013-05-22 19:35:00
2:55 PM,46.4,44.6,93,30.07,9.0,East,8.1,-,N/A,,Overcast,100,2013-05-22 19:55:00
3:15 PM,48.2,44.6,87,30.08,10.0,East,8.1,-,N/A,,Overcast,100,2013-05-22 20:15:00
3:35 PM,50.0,44.6,82,30.07,10.0,ESE,9.2,-,N/A,,Overcast,120,2013-05-22 20:35:00
3:55 PM,50.0,44.6,82,30.07,10.0,ESE,9.2,-,N/A,,Overcast,110,2013-05-22 20:55:00
4:15 PM,50.0,44.6,82,30.08,10.0,East,11.5,-,N/A,,Overcast,100,2013-05-22 21:15:00
4:35 PM,50.0,44.6,82,30.08,10.0,ESE,9.2,-,N/A,,Overcast,110,2013-05-22 21:35:00
4:55 PM,50.0,44.6,82,30.08,10.0,ESE,9.2,-,N/A,,Overcast,110,2013-05-22 21:55:00
5:15 PM,50.0,44.6,82,30.08,10.0,ESE,6.9,-,N/A,,Overcast,110,2013-05-22 22:15:00
5:35 PM,51.8,44.6,76,30.08,10.0,ESE,11.5,-,N/A,,Overcast,110,2013-05-22 22:35:00
5:55 PM,50.0,44.6,82,30.08,10.0,ESE,11.5,17.3,N/A,,Overcast,110,2013-05-22 22:55:00
6:15 PM,50.0,44.6,82,30.08,10.0,ESE,13.8,17.3,N/A,,Overcast,110,2013-05-22 23:15:00
6:35 PM,50.0,44.6,82,30.08,10.0,ESE,12.7,-,N/A,,Overcast,110,2013-05-22 23:35:00
6:55 PM,50.0,44.6,82,30.09,10.0,SE,12.7,-,N/A,,Overcast,130,2013-05-22 23:55:00
7:15 PM,50.0,44.6,82,30.08,10.0,SE,11.5,-,N/A,,Overcast,130,2013-05-23 00:15:00
7:35 PM,50.0,44.6,82,30.09,10.0,SE,10.4,-,N/A,,Overcast,130,2013-05-23 00:35:00
7:55 PM,50.0,44.6,82,30.09,10.0,SE,9.2,-,N/A,,Overcast,130,2013-05-23 00:55:00
8:15 PM,50.0,42.8,76,30.09,10.0,SE,11.5,-,N/A,,Overcast,130,2013-05-23 01:15:00
8:35 PM,50.0,44.6,82,30.09,10.0,ESE,9.2,-,N/A,,Overcast,120,2013-05-23 01:35:00
8:55 PM,48.2,42.8,82,30.09,10.0,ESE,10.4,-,N/A,,Mostly Cloudy,120,2013-05-23 01:55:00
9:15 PM,46.4,42.8,87,30.10,10.0,ESE,10.4,-,N/A,,Partly Cloudy,120,2013-05-23 02:15:00
9:35 PM,46.4,42.8,87,30.11,10.0,SE,10.4,-,N/A,,Clear,130,2013-05-23 02:35:00
9:55 PM,46.4,42.8,87,30.12,10.0,East,9.2,-,N/A,,Scattered Clouds,100,2013-05-23 02:55:00
10:15 PM,48.2,42.8,82,30.12,10.0,SE,15.0,18.4,N/A,,Overcast,130,2013-05-23 03:15:00
10:35 PM,50.0,42.8,76,30.13,10.0,ESE,12.7,-,N/A,,Overcast,120,2013-05-23 03:35:00
10:55 PM,50.0,42.8,76,30.13,10.0,SE,15.0,-,N/A,,Overcast,130,2013-05-23 03:55:00
11:15 PM,50.0,42.8,76,30.14,10.0,ESE,16.1,21.9,N/A,,Overcast,120,2013-05-23 04:15:00
11:35 PM,50.0,42.8,76,30.13,10.0,ESE,18.4,25.3,N/A,,Overcast,120,2013-05-23 04:35:00
11:55 PM,50.0,41.0,71,30.13,10.0,SE,20.7,29.9,N/A,,Overcast,130,2013-05-23 04:55:00